iso_date,epoch_date,Year,Hour,Min,DOY,POS_DOY,Lat,Lon,BP,Ts,Ta,has_bp,has_ts,has_ta,BuoyID,Buoy_Type,Buoy_Owner,Logistics,Hemisphere
2018-04-13T18:00:00Z,1523642400,2018,18,0,103.75,103.75,-67.0164,-156.4978,974.9,-1.29,-999.0,yes,yes,no,300234065251010,BD2GI,AOML,Palmer,South
2018-04-13T19:00:28Z,1523646029,2018,19,0,103.792,103.792,-67.0222,-156.4884,973.2,-1.29,-999.0,yes,yes,no,300234065251010,BD2GI,AOML,Palmer,South
2018-04-13T19:59:31Z,1523649571,2018,20,0,103.833,103.833,-67.027,-156.4762,972.1,-1.29,-999.0,yes,yes,no,300234065251010,BD2GI,AOML,Palmer,South
2018-04-13T21:00:00Z,1523653200,2018,21,0,103.875,103.875,-67.0308,-156.4626,971.0,-1.29,-999.0,yes,yes,no,300234065251010,BD2GI,AOML,Palmer,South
2018-04-13T22:00:28Z,1523656829,2018,22,0,103.917,103.917,-67.0336,-156.4464,970.3,-1.29,-999.0,yes,yes,no,300234065251010,BD2GI,AOML,Palmer,South
2018-04-13T22:59:31Z,1523660371,2018,23,0,103.958,103.958,-67.0346,-156.432,969.5,-1.33,-999.0,yes,yes,no,300234065251010,BD2GI,AOML,Palmer,South
2018-04-14T00:00:00Z,1523664000,2018,0,0,104.0,104.0,-67.035,-156.418,969.1,-1.29,-999.0,yes,yes,no,300234065251010,BD2GI,AOML,Palmer,South
2018-04-14T01:00:28Z,1523667629,2018,1,0,104.042,104.042,-67.0342,-156.4044,968.7,-1.29,-999.0,yes,yes,no,300234065251010,BD2GI,AOML,Palmer,South
2018-04-14T01:59:31Z,1523671171,2018,2,0,104.083,104.083,-67.034,-156.3948,968.2,-1.29,-999.0,yes,yes,no,300234065251010,BD2GI,AOML,Palmer,South
2018-04-14T03:00:00Z,1523674800,2018,3,0,104.125,104.125,-67.0344,-156.3878,968.0,-1.29,-999.0,yes,yes,no,300234065251010,BD2GI,AOML,Palmer,South
2018-04-14T04:00:28Z,1523678429,2018,4,0,104.167,104.167,-67.036,-156.38,967.7,-1.29,-999.0,yes,yes,no,300234065251010,BD2GI,AOML,Palmer,South
2018-04-14T04:59:31Z,1523681971,2018,5,0,104.208,104.208,-67.0396,-156.3746,966.8,-1.26,-999.0,yes,yes,no,300234065251010,BD2GI,AOML,Palmer,South
2018-04-14T06:00:00Z,1523685600,2018,6,0,104.25,104.25,-67.0442,-156.3672,966.6,-1.26,-999.0,yes,yes,no,300234065251010,BD2GI,AOML,Palmer,South
2018-04-14T07:00:28Z,1523689229,2018,7,0,104.292,104.292,-67.0496,-156.353,967.6,-1.29,-999.0,yes,yes,no,300234065251010,BD2GI,AOML,Palmer,South
2018-04-14T07:59:31Z,1523692771,2018,8,0,104.333,104.333,-67.0496,-156.353,967.8,-1.29,-999.0,yes,yes,no,300234065251010,BD2GI,AOML,Palmer,South
2018-04-14T09:00:00Z,1523696400,2018,9,0,104.375,104.375,-67.0542,-156.3156,968.2,-1.29,-999.0,yes,yes,no,300234065251010,BD2GI,AOML,Palmer,South
2018-04-14T10:00:28Z,1523700029,2018,10,0,104.417,104.417,-67.055,-156.2984,968.7,-1.29,-999.0,yes,yes,no,300234065251010,BD2GI,AOML,Palmer,South
2018-04-14T10:59:31Z,1523703571,2018,11,0,104.458,104.458,-67.0516,-156.277,969.5,-1.29,-999.0,yes,yes,no,300234065251010,BD2GI,AOML,Palmer,South
2018-04-14T12:00:00Z,1523707200,2018,12,0,104.5,104.5,-67.0432,-156.2618,974.1,-1.29,-999.0,yes,yes,no,300234065251010,BD2GI,AOML,Palmer,South
2018-04-14T13:00:28Z,1523710829,2018,13,0,104.542,104.542,-67.0332,-156.2574,976.2,-1.33,-999.0,yes,yes,no,300234065251010,BD2GI,AOML,Palmer,South
2018-04-14T13:59:31Z,1523714371,2018,14,0,104.583,104.583,-67.0244,-156.2588,978.0,-1.33,-999.0,yes,yes,no,300234065251010,BD2GI,AOML,Palmer,South
2018-04-14T15:00:00Z,1523718000,2018,15,0,104.625,104.625,-67.0244,-156.2588,979.0,-1.33,-999.0,yes,yes,no,300234065251010,BD2GI,AOML,Palmer,South
2018-04-14T16:00:28Z,1523721629,2018,16,0,104.667,104.667,-67.0118,-156.285,980.1,-1.36,-999.0,yes,yes,no,300234065251010,BD2GI,AOML,Palmer,South
2018-04-14T16:59:31Z,1523725171,2018,17,0,104.708,104.708,-67.0116,-156.3006,981.2,-1.36,-999.0,yes,yes,no,300234065251010,BD2GI,AOML,Palmer,South
2018-04-14T18:00:00Z,1523728800,2018,18,0,104.75,104.75,-67.0128,-156.3104,981.9,-1.36,-999.0,yes,yes,no,300234065251010,BD2GI,AOML,Palmer,South
2018-04-14T19:00:28Z,1523732429,2018,19,0,104.792,104.792,-67.0128,-156.3104,983.0,-1.4,-999.0,yes,yes,no,300234065251010,BD2GI,AOML,Palmer,South
2018-04-14T19:59:31Z,1523735971,2018,20,0,104.833,104.833,-67.0214,-156.3136,983.8,-1.4,-999.0,yes,yes,no,300234065251010,BD2GI,AOML,Palmer,South
2018-04-14T21:00:00Z,1523739600,2018,21,0,104.875,104.875,-67.0242,-156.3076,984.8,-1.43,-999.0,yes,yes,no,300234065251010,BD2GI,AOML,Palmer,South
2018-04-14T22:00:28Z,1523743229,2018,22,0,104.917,104.917,-67.0242,-156.3076,985.6,-1.43,-999.0,yes,yes,no,300234065251010,BD2GI,AOML,Palmer,South
2018-04-14T22:59:31Z,1523746771,2018,23,0,104.958,104.958,-67.0242,-156.3076,986.4,-1.43,-999.0,yes,yes,no,300234065251010,BD2GI,AOML,Palmer,South
2018-04-15T00:00:00Z,1523750400,2018,0,0,105.0,105.0,-67.0224,-156.262,986.5,-1.43,-999.0,yes,yes,no,300234065251010,BD2GI,AOML,Palmer,South
2018-04-15T01:00:28Z,1523754029,2018,1,0,105.042,105.042,-67.0224,-156.262,987.4,-1.43,-999.0,yes,yes,no,300234065251010,BD2GI,AOML,Palmer,South
2018-04-15T01:59:31Z,1523757571,2018,2,0,105.083,105.083,-67.0112,-156.2424,988.0,-1.43,-999.0,yes,yes,no,300234065251010,BD2GI,AOML,Palmer,South
2018-04-15T03:00:00Z,1523761200,2018,3,0,105.125,105.125,-67.0056,-156.2432,988.8,-1.47,-999.0,yes,yes,no,300234065251010,BD2GI,AOML,Palmer,South
2018-04-15T04:00:28Z,1523764829,2018,4,0,105.167,105.167,-67.001,-156.2486,989.3,-1.43,-999.0,yes,yes,no,300234065251010,BD2GI,AOML,Palmer,South
2018-04-15T04:59:31Z,1523768371,2018,5,0,105.208,105.208,-66.9984,-156.259,989.9,-1.5,-999.0,yes,yes,no,300234065251010,BD2GI,AOML,Palmer,South
2018-04-15T06:00:00Z,1523772000,2018,6,0,105.25,105.25,-66.9986,-156.2684,990.2,-1.47,-999.0,yes,yes,no,300234065251010,BD2GI,AOML,Palmer,South
2018-04-15T07:00:28Z,1523775629,2018,7,0,105.292,105.292,-67.0002,-156.2744,990.7,-1.47,-999.0,yes,yes,no,300234065251010,BD2GI,AOML,Palmer,South
2018-04-15T07:59:31Z,1523779171,2018,8,0,105.333,105.333,-67.003,-156.2784,990.7,-1.47,-999.0,yes,yes,no,300234065251010,BD2GI,AOML,Palmer,South
2018-04-15T09:00:00Z,1523782800,2018,9,0,105.375,105.375,-67.0064,-156.2788,991.0,-1.47,-999.0,yes,yes,no,300234065251010,BD2GI,AOML,Palmer,South
2018-04-15T10:00:28Z,1523786429,2018,10,0,105.417,105.417,-67.0064,-156.2788,991.4,-1.47,-999.0,yes,yes,no,300234065251010,BD2GI,AOML,Palmer,South
2018-04-15T10:59:31Z,1523789971,2018,11,0,105.458,105.458,-67.0064,-156.2788,992.0,-1.47,-999.0,yes,yes,no,300234065251010,BD2GI,AOML,Palmer,South
2018-04-15T12:00:00Z,1523793600,2018,12,0,105.5,105.5,-67.0106,-156.2442,992.4,-1.47,-999.0,yes,yes,no,300234065251010,BD2GI,AOML,Palmer,South
2018-04-15T13:00:28Z,1523797229,2018,13,0,105.542,105.542,-67.0074,-156.23,992.7,-1.47,-999.0,yes,yes,no,300234065251010,BD2GI,AOML,Palmer,South
2018-04-15T13:59:31Z,1523800771,2018,14,0,105.583,105.583,-67.0074,-156.23,992.8,-1.47,-999.0,yes,yes,no,300234065251010,BD2GI,AOML,Palmer,South
2018-04-15T15:00:00Z,1523804400,2018,15,0,105.625,105.625,-66.9942,-156.2142,992.9,-1.5,-999.0,yes,yes,no,300234065251010,BD2GI,AOML,Palmer,South
2018-04-15T16:00:28Z,1523808029,2018,16,0,105.667,105.667,-66.9874,-156.2162,992.8,-1.5,-999.0,yes,yes,no,300234065251010,BD2GI,AOML,Palmer,South
2018-04-15T16:59:31Z,1523811571,2018,17,0,105.708,105.708,-66.9814,-156.2262,992.8,-1.5,-999.0,yes,yes,no,300234065251010,BD2GI,AOML,Palmer,South
2018-04-15T18:00:00Z,1523815200,2018,18,0,105.75,105.75,-66.9786,-156.2392,993.1,-1.5,-999.0,yes,yes,no,300234065251010,BD2GI,AOML,Palmer,South
2018-04-15T19:00:28Z,1523818829,2018,19,0,105.792,105.792,-66.9774,-156.252,993.1,-1.53,-999.0,yes,yes,no,300234065251010,BD2GI,AOML,Palmer,South
2018-04-15T19:59:31Z,1523822371,2018,20,0,105.833,105.833,-66.9774,-156.252,993.6,-1.6,-999.0,yes,yes,no,300234065251010,BD2GI,AOML,Palmer,South
2018-04-15T21:00:00Z,1523826000,2018,21,0,105.875,105.875,-66.9814,-156.277,993.4,-1.5,-999.0,yes,yes,no,300234065251010,BD2GI,AOML,Palmer,South
2018-04-15T22:00:28Z,1523829629,2018,22,0,105.917,105.917,-66.9866,-156.2784,993.8,-1.5,-999.0,yes,yes,no,300234065251010,BD2GI,AOML,Palmer,South
2018-04-15T22:59:31Z,1523833171,2018,23,0,105.958,105.958,-66.9924,-156.2712,994.2,-1.5,-999.0,yes,yes,no,300234065251010,BD2GI,AOML,Palmer,South
2018-04-16T00:00:00Z,1523836800,2018,0,0,106.0,106.0,-66.9956,-156.2588,994.4,-1.5,-999.0,yes,yes,no,300234065251010,BD2GI,AOML,Palmer,South
2018-04-16T01:00:28Z,1523840429,2018,1,0,106.042,106.042,-66.9956,-156.2424,994.3,-1.5,-999.0,yes,yes,no,300234065251010,BD2GI,AOML,Palmer,South
2018-04-16T01:59:31Z,1523843971,2018,2,0,106.083,106.083,-66.9956,-156.2424,995.1,-1.5,-999.0,yes,yes,no,300234065251010,BD2GI,AOML,Palmer,South
2018-04-16T03:00:00Z,1523847600,2018,3,0,106.125,106.125,-66.9872,-156.2104,995.5,-1.53,-999.0,yes,yes,no,300234065251010,BD2GI,AOML,Palmer,South
2018-04-16T04:00:28Z,1523851229,2018,4,0,106.167,106.167,-66.9804,-156.2012,995.7,-1.53,-999.0,yes,yes,no,300234065251010,BD2GI,AOML,Palmer,South
2018-04-16T04:59:31Z,1523854771,2018,5,0,106.208,106.208,-66.9724,-156.2014,996.6,-1.53,-999.0,yes,yes,no,300234065251010,BD2GI,AOML,Palmer,South
2018-04-16T06:00:00Z,1523858400,2018,6,0,106.25,106.25,-66.966,-156.2102,997.6,-1.57,-999.0,yes,yes,no,300234065251010,BD2GI,AOML,Palmer,South
2018-04-16T07:00:28Z,1523862029,2018,7,0,106.292,106.292,-66.966,-156.2102,999.3,-1.74,-999.0,yes,yes,no,300234065251010,BD2GI,AOML,Palmer,South
2018-04-16T07:59:31Z,1523865571,2018,8,0,106.333,106.333,-66.966,-156.2102,1000.6,-1.7,-999.0,yes,yes,no,300234065251010,BD2GI,AOML,Palmer,South
2018-04-16T09:00:00Z,1523869200,2018,9,0,106.375,106.375,-66.9558,-156.2602,1001.3,-1.53,-999.0,yes,yes,no,300234065251010,BD2GI,AOML,Palmer,South
2018-04-16T10:00:28Z,1523872829,2018,10,0,106.417,106.417,-66.9558,-156.2602,1002.2,-1.57,-999.0,yes,yes,no,300234065251010,BD2GI,AOML,Palmer,South
2018-04-16T10:59:31Z,1523876371,2018,11,0,106.458,106.458,-66.9558,-156.2602,1002.9,-1.57,-999.0,yes,yes,no,300234065251010,BD2GI,AOML,Palmer,South
2018-04-16T12:00:00Z,1523880000,2018,12,0,106.5,106.5,-66.9656,-156.2864,1003.7,-1.64,-999.0,yes,yes,no,300234065251010,BD2GI,AOML,Palmer,South
2018-04-16T13:00:28Z,1523883629,2018,13,0,106.542,106.542,-66.968,-156.2804,1004.2,-1.67,-999.0,yes,yes,no,300234065251010,BD2GI,AOML,Palmer,South
2018-04-16T13:59:31Z,1523887171,2018,14,0,106.583,106.583,-66.968,-156.2804,1005.1,-1.67,-999.0,yes,yes,no,300234065251010,BD2GI,AOML,Palmer,South
2018-04-16T15:00:00Z,1523890800,2018,15,0,106.625,106.625,-66.968,-156.26,1005.1,-1.57,-999.0,yes,yes,no,300234065251010,BD2GI,AOML,Palmer,South
2018-04-16T16:00:28Z,1523894429,2018,16,0,106.667,106.667,-66.9644,-156.2502,1004.6,-1.57,-999.0,yes,yes,no,300234065251010,BD2GI,AOML,Palmer,South
2018-04-16T16:59:31Z,1523897971,2018,17,0,106.708,106.708,-66.9582,-156.2438,1006.5,-1.6,-999.0,yes,yes,no,300234065251010,BD2GI,AOML,Palmer,South
2018-04-16T18:00:00Z,1523901600,2018,18,0,106.75,106.75,-66.9524,-156.243,1007.3,-1.6,-999.0,yes,yes,no,300234065251010,BD2GI,AOML,Palmer,South
2018-04-16T19:00:28Z,1523905229,2018,19,0,106.792,106.792,-66.9468,-156.2498,1007.9,-1.64,-999.0,yes,yes,no,300234065251010,BD2GI,AOML,Palmer,South
2018-04-16T19:59:31Z,1523908771,2018,20,0,106.833,106.833,-66.9426,-156.2618,1008.2,-1.64,-999.0,yes,yes,no,300234065251010,BD2GI,AOML,Palmer,South
2018-04-16T21:00:00Z,1523912400,2018,21,0,106.875,106.875,-66.9426,-156.2618,1008.8,-1.64,-999.0,yes,yes,no,300234065251010,BD2GI,AOML,Palmer,South
2018-04-16T22:00:28Z,1523916029,2018,22,0,106.917,106.917,-66.9428,-156.2926,1008.4,-1.6,-999.0,yes,yes,no,300234065251010,BD2GI,AOML,Palmer,South
2018-04-16T22:59:31Z,1523919571,2018,23,0,106.958,106.958,-66.9466,-156.3056,1009.1,-1.57,-999.0,yes,yes,no,300234065251010,BD2GI,AOML,Palmer,South
2018-04-17T00:00:00Z,1523923200,2018,0,0,107.0,107.0,-66.953,-156.3096,1009.6,-1.6,-999.0,yes,yes,no,300234065251010,BD2GI,AOML,Palmer,South
2018-04-17T01:00:28Z,1523926829,2018,1,0,107.042,107.042,-66.9584,-156.305,1010.3,-1.6,-999.0,yes,yes,no,300234065251010,BD2GI,AOML,Palmer,South
2018-04-17T01:59:31Z,1523930371,2018,2,0,107.083,107.083,-66.9624,-156.2924,1011.0,-1.6,-999.0,yes,yes,no,300234065251010,BD2GI,AOML,Palmer,South
2018-04-17T03:00:00Z,1523934000,2018,3,0,107.125,107.125,-66.9642,-156.2768,1011.7,-1.6,-999.0,yes,yes,no,300234065251010,BD2GI,AOML,Palmer,South
2018-04-17T04:00:28Z,1523937629,2018,4,0,107.167,107.167,-66.9626,-156.2588,1012.6,-1.6,-999.0,yes,yes,no,300234065251010,BD2GI,AOML,Palmer,South
2018-04-17T04:59:31Z,1523941171,2018,5,0,107.208,107.208,-66.9574,-156.2434,1013.0,-1.6,-999.0,yes,yes,no,300234065251010,BD2GI,AOML,Palmer,South
2018-04-17T06:00:00Z,1523944800,2018,6,0,107.25,107.25,-66.9506,-156.238,1013.4,-1.64,-999.0,yes,yes,no,300234065251010,BD2GI,AOML,Palmer,South
2018-04-17T07:00:28Z,1523948429,2018,7,0,107.292,107.292,-66.9446,-156.243,1011.7,-1.64,-999.0,yes,yes,no,300234065251010,BD2GI,AOML,Palmer,South
2018-04-17T07:59:31Z,1523951971,2018,8,0,107.333,107.333,-66.9402,-156.2558,1014.3,-1.64,-999.0,yes,yes,no,300234065251010,BD2GI,AOML,Palmer,South
2018-04-17T09:00:00Z,1523955600,2018,9,0,107.375,107.375,-66.9388,-156.2702,1013.9,-1.64,-999.0,yes,yes,no,300234065251010,BD2GI,AOML,Palmer,South
2018-04-17T10:00:28Z,1523959229,2018,10,0,107.417,107.417,-66.9406,-156.2856,1013.8,-1.67,-999.0,yes,yes,no,300234065251010,BD2GI,AOML,Palmer,South
2018-04-17T10:59:31Z,1523962771,2018,11,0,107.458,107.458,-66.9458,-156.2974,1013.5,-1.67,-999.0,yes,yes,no,300234065251010,BD2GI,AOML,Palmer,South
2018-04-17T12:00:00Z,1523966400,2018,12,0,107.5,107.5,-66.9532,-156.3054,1013.1,-1.64,-999.0,yes,yes,no,300234065251010,BD2GI,AOML,Palmer,South
2018-04-17T13:00:28Z,1523970029,2018,13,0,107.542,107.542,-66.9616,-156.3054,1012.5,-1.6,-999.0,yes,yes,no,300234065251010,BD2GI,AOML,Palmer,South
2018-04-17T13:59:31Z,1523973571,2018,14,0,107.583,107.583,-66.9712,-156.295,1011.2,-1.6,-999.0,yes,yes,no,300234065251010,BD2GI,AOML,Palmer,South
2018-04-17T15:00:00Z,1523977200,2018,15,0,107.625,107.625,-66.9774,-156.2768,1010.4,-1.6,-999.0,yes,yes,no,300234065251010,BD2GI,AOML,Palmer,South
2018-04-17T16:00:28Z,1523980829,2018,16,0,107.667,107.667,-66.9798,-156.255,1010.0,-1.6,-999.0,yes,yes,no,300234065251010,BD2GI,AOML,Palmer,South
2018-04-17T16:59:31Z,1523984371,2018,17,0,107.708,107.708,-66.9782,-156.234,1009.7,-1.6,-999.0,yes,yes,no,300234065251010,BD2GI,AOML,Palmer,South
2018-04-17T18:00:00Z,1523988000,2018,18,0,107.75,107.75,-66.973,-156.2104,1009.7,-1.6,-999.0,yes,yes,no,300234065251010,BD2GI,AOML,Palmer,South
2018-04-17T19:00:28Z,1523991629,2018,19,0,107.792,107.792,-66.9686,-156.2064,1009.9,-1.6,-999.0,yes,yes,no,300234065251010,BD2GI,AOML,Palmer,South
2018-04-17T19:59:31Z,1523995171,2018,20,0,107.833,107.833,-66.9638,-156.2078,1009.4,-1.6,-999.0,yes,yes,no,300234065251010,BD2GI,AOML,Palmer,South
2018-04-17T21:00:00Z,1523998800,2018,21,0,107.875,107.875,-66.9594,-156.217,1009.7,-1.57,-999.0,yes,yes,no,300234065251010,BD2GI,AOML,Palmer,South
2018-04-17T22:00:28Z,1524002429,2018,22,0,107.917,107.917,-66.9554,-156.2324,1009.7,-1.6,-999.0,yes,yes,no,300234065251010,BD2GI,AOML,Palmer,South
2018-04-17T22:59:31Z,1524005971,2018,23,0,107.958,107.958,-66.9566,-156.2504,1009.8,-1.57,-999.0,yes,yes,no,300234065251010,BD2GI,AOML,Palmer,South
2018-04-18T00:00:00Z,1524009600,2018,0,0,108.0,108.0,-66.9624,-156.2644,1010.0,-1.57,-999.0,yes,yes,no,300234065251010,BD2GI,AOML,Palmer,South
2018-04-18T01:00:28Z,1524013229,2018,1,0,108.042,108.042,-66.9704,-156.269,1009.9,-1.57,-999.0,yes,yes,no,300234065251010,BD2GI,AOML,Palmer,South
2018-04-18T01:59:31Z,1524016771,2018,2,0,108.083,108.083,-66.9776,-156.2696,1009.9,-1.6,-999.0,yes,yes,no,300234065251010,BD2GI,AOML,Palmer,South
2018-04-18T03:00:00Z,1524020400,2018,3,0,108.125,108.125,-66.986,-156.2598,1009.8,-1.6,-999.0,yes,yes,no,300234065251010,BD2GI,AOML,Palmer,South
2018-04-18T04:00:28Z,1524024029,2018,4,0,108.167,108.167,-66.9916,-156.2422,1009.9,-1.6,-999.0,yes,yes,no,300234065251010,BD2GI,AOML,Palmer,South
2018-04-18T04:59:31Z,1524027571,2018,5,0,108.208,108.208,-66.9946,-156.2206,1009.8,-1.6,-999.0,yes,yes,no,300234065251010,BD2GI,AOML,Palmer,South
2018-04-18T06:00:00Z,1524031200,2018,6,0,108.25,108.25,-66.9936,-156.1982,1009.9,-1.6,-999.0,yes,yes,no,300234065251010,BD2GI,AOML,Palmer,South
2018-04-18T07:00:28Z,1524034829,2018,7,0,108.292,108.292,-66.989,-156.182,1010.0,-1.6,-999.0,yes,yes,no,300234065251010,BD2GI,AOML,Palmer,South
2018-04-18T07:59:31Z,1524038371,2018,8,0,108.333,108.333,-66.9842,-156.1762,1009.9,-1.57,-999.0,yes,yes,no,300234065251010,BD2GI,AOML,Palmer,South
2018-04-18T09:00:00Z,1524042000,2018,9,0,108.375,108.375,-66.98,-156.1816,1010.1,-1.6,-999.0,yes,yes,no,300234065251010,BD2GI,AOML,Palmer,South
2018-04-18T10:00:28Z,1524045629,2018,10,0,108.417,108.417,-66.976,-156.1922,1010.1,-1.6,-999.0,yes,yes,no,300234065251010,BD2GI,AOML,Palmer,South
2018-04-18T10:59:31Z,1524049171,2018,11,0,108.458,108.458,-66.9758,-156.2074,1010.0,-1.6,-999.0,yes,yes,no,300234065251010,BD2GI,AOML,Palmer,South
2018-04-18T12:00:00Z,1524052800,2018,12,0,108.5,108.5,-66.9794,-156.2214,1010.3,-1.6,-999.0,yes,yes,no,300234065251010,BD2GI,AOML,Palmer,South
2018-04-18T13:00:28Z,1524056429,2018,13,0,108.542,108.542,-66.9854,-156.2328,1010.0,-1.57,-999.0,yes,yes,no,300234065251010,BD2GI,AOML,Palmer,South
2018-04-18T13:59:31Z,1524059971,2018,14,0,108.583,108.583,-66.9928,-156.2386,1009.7,-1.6,-999.0,yes,yes,no,300234065251010,BD2GI,AOML,Palmer,South
2018-04-18T15:00:00Z,1524063600,2018,15,0,108.625,108.625,-67.0004,-156.2386,1009.2,-1.6,-999.0,yes,yes,no,300234065251010,BD2GI,AOML,Palmer,South
2018-04-18T16:00:28Z,1524067229,2018,16,0,108.667,108.667,-67.0072,-156.2332,1008.7,-1.64,-999.0,yes,yes,no,300234065251010,BD2GI,AOML,Palmer,South
2018-04-18T16:59:31Z,1524070771,2018,17,0,108.708,108.708,-67.0116,-156.222,1008.6,-1.6,-999.0,yes,yes,no,300234065251010,BD2GI,AOML,Palmer,South
2018-04-18T18:00:00Z,1524074400,2018,18,0,108.75,108.75,-67.0146,-156.2058,1008.5,-1.6,-999.0,yes,yes,no,300234065251010,BD2GI,AOML,Palmer,South
2018-04-18T19:00:28Z,1524078029,2018,19,0,108.792,108.792,-67.0148,-156.1902,1008.8,-1.6,-999.0,yes,yes,no,300234065251010,BD2GI,AOML,Palmer,South
2018-04-18T19:59:31Z,1524081571,2018,20,0,108.833,108.833,-67.0136,-156.1774,1008.7,-1.6,-999.0,yes,yes,no,300234065251010,BD2GI,AOML,Palmer,South
2018-04-18T21:00:00Z,1524085200,2018,21,0,108.875,108.875,-67.011,-156.1702,1008.7,-1.6,-999.0,yes,yes,no,300234065251010,BD2GI,AOML,Palmer,South
2018-04-18T22:00:28Z,1524088829,2018,22,0,108.917,108.917,-67.0086,-156.1698,1008.3,-1.6,-999.0,yes,yes,no,300234065251010,BD2GI,AOML,Palmer,South
2018-04-18T22:59:31Z,1524092371,2018,23,0,108.958,108.958,-67.0066,-156.1768,1008.0,-1.6,-999.0,yes,yes,no,300234065251010,BD2GI,AOML,Palmer,South
2018-04-19T00:00:00Z,1524096000,2018,0,0,109.0,109.0,-67.0072,-156.1888,1007.6,-1.57,-999.0,yes,yes,no,300234065251010,BD2GI,AOML,Palmer,South
2018-04-19T01:00:28Z,1524099629,2018,1,0,109.042,109.042,-67.0116,-156.2028,1007.7,-1.6,-999.0,yes,yes,no,300234065251010,BD2GI,AOML,Palmer,South
2018-04-19T01:59:31Z,1524103171,2018,2,0,109.083,109.083,-67.0194,-156.2136,1006.9,-1.6,-999.0,yes,yes,no,300234065251010,BD2GI,AOML,Palmer,South
2018-04-19T03:00:00Z,1524106800,2018,3,0,109.125,109.125,-67.0294,-156.216,1006.6,-1.6,-999.0,yes,yes,no,300234065251010,BD2GI,AOML,Palmer,South
2018-04-19T04:00:28Z,1524110429,2018,4,0,109.167,109.167,-67.0402,-156.2096,1006.5,-1.6,-999.0,yes,yes,no,300234065251010,BD2GI,AOML,Palmer,South
2018-04-19T04:59:31Z,1524113971,2018,5,0,109.208,109.208,-67.0508,-156.1944,1006.0,-1.64,-999.0,yes,yes,no,300234065251010,BD2GI,AOML,Palmer,South
2018-04-19T06:00:00Z,1524117600,2018,6,0,109.25,109.25,-67.06,-156.1714,1005.6,-1.6,-999.0,yes,yes,no,300234065251010,BD2GI,AOML,Palmer,South
2018-04-19T07:00:28Z,1524121229,2018,7,0,109.292,109.292,-67.06,-156.1432,1005.2,-1.64,-999.0,yes,yes,no,300234065251010,BD2GI,AOML,Palmer,South
2018-04-19T07:59:31Z,1524124771,2018,8,0,109.333,109.333,-67.0712,-156.1136,1004.5,-1.64,-999.0,yes,yes,no,300234065251010,BD2GI,AOML,Palmer,South
2018-04-19T09:00:00Z,1524128400,2018,9,0,109.375,109.375,-67.0718,-156.088,1004.3,-1.64,-999.0,yes,yes,no,300234065251010,BD2GI,AOML,Palmer,South
2018-04-19T10:00:28Z,1524132029,2018,10,0,109.417,109.417,-67.071,-156.066,1004.2,-1.6,-999.0,yes,yes,no,300234065251010,BD2GI,AOML,Palmer,South
2018-04-19T10:59:31Z,1524135571,2018,11,0,109.458,109.458,-67.0688,-156.0518,1003.3,-1.6,-999.0,yes,yes,no,300234065251010,BD2GI,AOML,Palmer,South
2018-04-19T12:00:00Z,1524139200,2018,12,0,109.5,109.5,-67.0672,-156.0426,1003.1,-1.6,-999.0,yes,yes,no,300234065251010,BD2GI,AOML,Palmer,South
2018-04-19T13:00:28Z,1524142829,2018,13,0,109.542,109.542,-67.067,-156.0378,1002.7,-1.6,-999.0,yes,yes,no,300234065251010,BD2GI,AOML,Palmer,South
2018-04-19T13:59:31Z,1524146371,2018,14,0,109.583,109.583,-67.0684,-156.036,1002.2,-1.6,-999.0,yes,yes,no,300234065251010,BD2GI,AOML,Palmer,South
2018-04-19T15:00:00Z,1524150000,2018,15,0,109.625,109.625,-67.0712,-156.034,1002.2,-1.6,-999.0,yes,yes,no,300234065251010,BD2GI,AOML,Palmer,South
2018-04-19T16:00:28Z,1524153629,2018,16,0,109.667,109.667,-67.0754,-156.0276,1001.4,-1.6,-999.0,yes,yes,no,300234065251010,BD2GI,AOML,Palmer,South
2018-04-19T16:59:31Z,1524157171,2018,17,0,109.708,109.708,-67.0796,-156.017,1000.8,-1.6,-999.0,yes,yes,no,300234065251010,BD2GI,AOML,Palmer,South
2018-04-19T18:00:00Z,1524160800,2018,18,0,109.75,109.75,-67.0844,-156.0006,1000.7,-1.6,-999.0,yes,yes,no,300234065251010,BD2GI,AOML,Palmer,South
2018-04-19T19:00:28Z,1524164429,2018,19,0,109.792,109.792,-67.0872,-155.9802,1000.2,-1.57,-999.0,yes,yes,no,300234065251010,BD2GI,AOML,Palmer,South
2018-04-19T19:59:31Z,1524167971,2018,20,0,109.833,109.833,-67.0878,-155.9594,1000.1,-1.6,-999.0,yes,yes,no,300234065251010,BD2GI,AOML,Palmer,South
2018-04-19T21:00:00Z,1524171600,2018,21,0,109.875,109.875,-67.0858,-155.9378,999.8,-1.6,-999.0,yes,yes,no,300234065251010,BD2GI,AOML,Palmer,South
2018-04-19T22:00:28Z,1524175229,2018,22,0,109.917,109.917,-67.0826,-155.9192,999.5,-1.57,-999.0,yes,yes,no,300234065251010,BD2GI,AOML,Palmer,South
2018-04-19T22:59:31Z,1524178771,2018,23,0,109.958,109.958,-67.0772,-155.9044,999.0,-1.57,-999.0,yes,yes,no,300234065251010,BD2GI,AOML,Palmer,South
2018-04-20T00:00:00Z,1524182400,2018,0,0,110.0,110.0,-67.071,-155.9012,998.4,-1.57,-999.0,yes,yes,no,300234065251010,BD2GI,AOML,Palmer,South
2018-04-20T01:00:28Z,1524186029,2018,1,0,110.042,110.042,-67.0654,-155.9028,998.2,-1.57,-999.0,yes,yes,no,300234065251010,BD2GI,AOML,Palmer,South
2018-04-20T01:59:31Z,1524189571,2018,2,0,110.083,110.083,-67.0612,-155.907,997.9,-1.57,-999.0,yes,yes,no,300234065251010,BD2GI,AOML,Palmer,South
2018-04-20T03:00:00Z,1524193200,2018,3,0,110.125,110.125,-67.0602,-155.9166,997.4,-1.57,-999.0,yes,yes,no,300234065251010,BD2GI,AOML,Palmer,South
2018-04-20T04:00:28Z,1524196829,2018,4,0,110.167,110.167,-67.0614,-155.9244,996.9,-1.57,-999.0,yes,yes,no,300234065251010,BD2GI,AOML,Palmer,South
2018-04-20T04:59:31Z,1524200371,2018,5,0,110.208,110.208,-67.0638,-155.9278,996.4,-1.57,-999.0,yes,yes,no,300234065251010,BD2GI,AOML,Palmer,South
2018-04-20T06:00:00Z,1524204000,2018,6,0,110.25,110.25,-67.067,-155.927,995.9,-1.57,-999.0,yes,yes,no,300234065251010,BD2GI,AOML,Palmer,South
2018-04-20T07:00:28Z,1524207629,2018,7,0,110.292,110.292,-67.0704,-155.9232,995.6,-1.57,-999.0,yes,yes,no,300234065251010,BD2GI,AOML,Palmer,South
2018-04-20T07:59:31Z,1524211171,2018,8,0,110.333,110.333,-67.0728,-155.9116,995.3,-1.57,-999.0,yes,yes,no,300234065251010,BD2GI,AOML,Palmer,South
2018-04-20T09:00:00Z,1524214800,2018,9,0,110.375,110.375,-67.0736,-155.8976,994.9,-1.57,-999.0,yes,yes,no,300234065251010,BD2GI,AOML,Palmer,South
2018-04-20T10:00:28Z,1524218429,2018,10,0,110.417,110.417,-67.0716,-155.8834,994.4,-1.57,-999.0,yes,yes,no,300234065251010,BD2GI,AOML,Palmer,South
2018-04-20T10:59:31Z,1524221971,2018,11,0,110.458,110.458,-67.0676,-155.8712,994.0,-1.57,-999.0,yes,yes,no,300234065251010,BD2GI,AOML,Palmer,South
2018-04-20T12:00:00Z,1524225600,2018,12,0,110.5,110.5,-67.0616,-155.8646,993.5,-1.57,-999.0,yes,yes,no,300234065251010,BD2GI,AOML,Palmer,South